Wind_Speed
98 98 98 99 99 99 100 101 101 102 103 104 104 105 106 106 107 107 108 108 108 108 109 109 109 108 108 108 107 106 106 105 104 103 102 102 102 101 101 101 101 101 101 101 101 101 101 100 100 100 99 98
99 99 99 99 99 100 101 102 103 104 105 106 106 106 107 107 108 108 108 108 108 108 108 107 107 107 106 106 105 104 103 102 101 101 100 99 99 99 99 99 99 99 100 100 100 100 100 100 100 100 100 99
99 98 99 99 101 102 104 105 105 106 106 106 106 106 106 106 106 106 106 106 105 105 105 105 104 104 103 103 102 101 100 99 99 98 98 97 97 96 96 97 97 97 98 99 99 99 99 99 100 100 100 99
99 99 100 102 103 105 105 106 105 105 104 104 104 104 103 103 102 102 101 101 101 101 101 101 100 100 100 99 98 98 97 97 97 96 96 96 96 95 95 95 95 96 96 97 98 99 99 99 99 99 99 99
100 101 103 104 105 105 105 104 103 101 100 100 99 98 97 97 96 95 95 95 96 96 96 97 97 97 96 96 96 95 95 95 95 95 95 95 95 95 94 94 94 94 95 96 97 98 98 99 98 98 98 98
102 103 104 104 104 103 101 100 98 96 95 94 94 92 91 91 90 90 90 91 92 93 93 94 94 94 94 94 93 94 94 94 94 94 94 93 93 93 93 93 93 93 93 94 95 97 98 98 98 98 98 98
102 102 102 101 100 98 97 95 93 92 90 90 89 88 87 87 87 88 89 90 90 91 92 93 93 92 92 92 92 92 92 92 92 92 92 91 91 91 92 92 92 92 92 92 93 94 96 97 98 98 98 99
100 99 98 97 96 94 93 92 91 89 88 87 86 86 85 86 86 87 88 89 90 91 91 91 91 90 90 90 90 90 90 90 90 90 89 89 89 89 90 91 91 91 91 90 90 91 93 94 96 97 98 98
96 95 94 93 92 92 91 90 90 88 87 86 85 85 85 86 87 87 88 89 90 90 90 90 90 89 88 88 88 88 88 88 88 87 88 88 88 88 89 89 90 90 90 90 89 89 90 91 93 95 96 97
93 93 92 92 91 91 90 90 89 88 87 86 86 86 86 86 87 88 88 89 89 90 89 89 88 87 86 86 86 86 86 86 86 86 86 86 86 87 87 87 88 89 89 89 88 88 88 89 90 92 94 95
92 92 91 91 91 90 90 90 90 89 88 87 87 87 87 87 88 88 89 89 89 89 89 88 86 85 84 84 84 84 84 84 84 84 84 84 84 84 84 85 85 86 87 87 87 87 86 87 88 90 91 93
91 91 91 91 91 91 90 90 90 89 89 88 88 87 87 88 88 89 89 90 89 89 88 87 85 84 83 83 82 82 83 83 83 83 82 82 81 81 80 81 82 83 84 85 85 85 85 85 85 87 89 91
90 90 90 90 91 91 91 91 91 90 89 88 89 89 89 89 89 89 90 90 89 89 88 86 84 83 82 81 81 81 81 81 81 80 80 79 78 77 76 76 77 79 80 82 82 83 83 83 83 84 85 88
90 90 90 91 91 91 91 91 91 90 89 90 90 91 91 90 90 90 90 89 89 89 88 86 84 82 82 81 80 79 79 79 78 78 78 76 75 73 72 71 72 73 75 77 78 78 79 79 79 80 81 84
90 90 91 91 91 91 92 92 91 91 91 92 93 93 92 92 91 90 89 89 89 88 88 86 84 82 81 80 79 78 78 77 76 77 76 74 71 69 68 67 67 67 69 71 72 72 73 73 74 74 76 78
90 91 91 91 92 92 93 92 92 93 93 94 94 94 93 92 91 90 89 88 88 88 87 86 84 82 81 79 78 77 77 76 75 75 75 72 69 66 64 64 64 64 65 67 67 68 68 69 70 70 71 73
92 92 92 93 93 93 93 93 94 95 95 96 96 95 94 93 91 90 89 88 88 87 86 85 83 81 79 78 77 76 76 75 74 74 73 71 68 65 63 63 63 62 63 64 65 65 65 66 67 67 68 69
93 93 94 94 95 94 94 95 96 96 97 97 97 96 94 92 91 89 88 87 86 86 85 84 82 79 78 76 75 75 75 74 73 73 72 71 68 66 65 64 64 64 63 64 65 64 64 65 66 66 66 67
95 95 95 96 95 95 95 96 97 98 98 98 97 95 93 91 89 88 86 85 85 85 84 82 80 78 76 75 74 74 74 73 72 72 72 71 69 68 67 66 66 66 65 65 65 65 65 65 66 66 66 66
96 96 96 96 96 96 97 97 98 99 99 98 96 94 92 90 87 86 84 84 83 83 83 81 79 77 75 74 73 73 73 72 71 71 71 71 70 69 69 68 68 68 67 67 67 67 66 66 66 66 66 67
97 97 97 97 97 97 98 99 99 99 98 97 95 93 91 89 86 84 83 83 82 82 82 81 79 77 75 74 73 72 72 72 71 71 72 72 72 70 70 70 70 70 69 68 68 68 68 68 68 67 68 68
97 97 97 98 98 99 99 99 99 98 96 95 94 92 90 87 85 83 82 82 82 81 80 79 78 77 75 74 73 72 71 72 72 72 73 73 73 72 72 72 72 72 71 70 70 70 71 70 70 70 70 70
97 98 98 99 99 99 99 98 97 95 94 93 91 89 87 85 83 81 81 80 79 78 77 76 76 75 74 73 73 72 71 72 72 73 74 74 75 74 74 74 75 74 74 72 72 73 73 73 73 73 73 73
98 99 99 99 99 99 98 96 94 93 90 87 85 83 82 80 79 78 78 77 76 75 74 74 74 74 73 73 73 72 72 72 73 74 75 75 76 76 76 76 77 77 76 76 75 76 76 76 76 76 76 76
99 100 100 99 98 97 95 94 91 88 85 82 80 78 76 75 75 74 75 75 74 73 73 72 73 73 73 73 73 73 72 73 75 76 76 76 77 78 78 79 80 80 79 79 79 79 79 79 80 80 80 80
100 100 99 98 96 94 93 91 87 83 81 80 78 76 74 73 73 72 72 73 73 73 73 73 72 72 72 73 74 74 74 75 77 78 78 78 79 80 80 81 83 83 83 82 82 83 82 83 84 84 84 84
100 99 98 96 94 92 89 86 83 81 80 79 78 77 75 74 74 73 73 73 73 73 73 73 73 73 72 73 74 75 76 78 79 80 81 81 81 82 83 84 85 86 86 86 86 86 86 86 87 88 88 88
99 97 95 93 91 87 84 82 82 82 81 80 80 79 79 78 77 76 75 75 75 74 74 74 74 75 75 75 75 77 78 81 82 83 84 84 85 85 85 86 88 89 90 90 89 89 89 90 90 91 92 92
97 95 93 90 87 84 83 82 82 83 83 83 82 82 82 82 82 81 79 78 78 77 77 76 76 77 78 78 78 79 81 83 86 87 88 88 88 88 88 89 90 92 93 94 93 92 92 93 93 93 95 95
94 91 89 87 85 85 84 84 85 85 85 85 85 86 86 86 86 85 85 84 83 82 81 80 80 80 80 81 82 83 84 86 89 91 92 92 92 91 92 92 92 94 96 97 96 96 96 96 96 96 98 99
91 89 88 88 87 87 87 87 87 88 89 89 89 90 90 90 90 90 90 89 88 87 86 85 85 85 84 85 86 87 88 90 92 94 95 96 96 95 95 95 95 97 99 100 100 101 101 100 99 100 100 102
Wind_Direction
284 284 284 284 283 283 282 282 282 282 282 282 281 281 281 280 279 279 278 278 277 277 276 276 276 275 275 274 274 273 273 272 271 270 270 269 268 267 267 266 265 264 264 263 263 262 261 260 260 259 257 254
284 284 284 283 283 283 282 282 282 282 282 282 282 281 280 280 279 279 278 277 277 276 276 275 275 275 274 274 273 273 272 272 271 270 269 268 267 266 266 265 264 264 263 262 262 261 260 260 259 258 257 256
284 284 283 283 283 282 282 283 283 283 282 282 281 280 280 279 279 278 277 277 276 275 275 274 274 273 273 273 272 272 272 271 271 270 269 268 267 266 265 264 263 263 262 262 261 260 259 259 258 257 257 256
283 283 283 283 283 282 283 283 283 282 282 281 280 280 279 278 278 277 276 275 275 274 273 273 272 272 272 272 271 271 271 270 270 269 269 268 267 265 264 263 262 262 261 261 260 260 259 258 257 257 256 255
283 283 283 283 282 282 282 282 282 281 281 280 279 279 278 278 277 276 276 275 274 273 273 272 272 272 271 271 271 270 270 269 269 268 268 267 267 266 264 263 262 260 260 259 259 259 259 258 257 256 256 255
283 283 283 282 282 282 282 282 281 281 280 280 279 278 278 277 276 276 275 275 274 274 273 273 272 272 271 271 270 270 269 268 268 267 267 266 266 265 265 263 262 260 259 258 258 258 258 257 257 256 256 255
283 283 283 282 283 282 282 282 282 282 281 280 279 278 277 277 277 276 276 276 275 275 274 273 273 272 272 271 270 270 269 268 267 267 266 266 265 265 264 263 262 260 258 257 256 256 256 256 256 256 255 255
283 283 283 283 284 284 284 284 284 283 282 281 279 278 278 278 278 277 277 277 276 275 274 274 273 273 272 272 271 270 269 268 268 267 266 265 265 264 263 262 262 261 259 257 256 255 255 255 255 255 255 254
285 285 285 285 285 285 286 285 285 284 283 281 280 280 280 279 279 279 278 278 277 276 275 274 274 273 273 272 271 270 270 269 268 267 266 265 264 263 262 262 261 260 259 258 256 254 254 253 253 253 253 253
286 286 286 286 286 286 286 286 286 285 284 283 282 282 281 281 280 280 279 279 278 276 276 275 275 274 274 273 272 271 270 269 268 267 266 265 264 264 263 262 260 260 259 258 256 254 253 252 252 252 252 252
287 287 287 287 287 287 287 287 286 286 285 284 284 283 282 282 281 281 280 279 278 277 276 276 276 275 274 273 272 272 271 270 269 268 267 266 265 264 263 262 260 259 258 257 256 254 253 251 251 250 250 251
287 287 287 287 287 287 287 288 287 287 286 285 284 283 283 282 282 282 281 280 279 278 277 277 276 275 274 273 273 272 271 271 270 269 268 267 266 265 263 261 260 258 257 256 255 254 253 251 250 250 249 249
287 287 287 287 287 288 288 288 288 287 286 285 284 284 284 283 283 282 281 281 280 279 278 277 276 275 274 273 272 272 271 271 271 270 269 269 267 266 264 261 259 257 256 254 254 254 253 252 251 250 249 248
287 287 288 288 288 288 289 288 288 286 286 285 285 284 284 284 283 282 282 281 280 279 278 277 276 275 274 273 272 271 271 271 270 270 269 268 267 265 263 260 258 256 254 254 253 253 253 252 252 251 249 248
288 288 289 289 289 289 288 288 287 286 286 286 285 285 284 284 283 283 282 281 280 279 279 278 277 275 274 273 271 270 270 270 269 268 267 266 264 263 261 259 257 255 253 253 252 252 252 251 251 250 249 248
289 289 289 289 289 288 288 287 287 286 286 286 285 285 285 284 284 283 282 281 280 279 278 277 276 275 274 272 271 269 269 269 268 266 264 262 260 259 259 257 255 253 252 252 251 250 250 250 250 249 249 248
289 289 289 289 288 288 288 287 286 286 286 286 285 285 285 284 284 283 282 281 280 279 278 277 276 274 273 271 270 269 268 267 266 263 261 258 257 257 256 256 255 253 252 252 251 250 250 250 250 249 248 248
289 289 289 289 288 288 287 287 287 286 286 286 285 285 285 284 283 282 281 281 280 278 277 276 275 273 272 270 269 267 267 265 263 260 257 255 255 255 254 254 254 253 252 252 252 251 250 250 250 249 248 247
288 288 288 288 288 287 287 287 287 287 286 286 286 285 285 284 283 282 281 280 279 278 277 276 274 272 270 269 267 266 265 263 260 257 254 253 253 254 253 253 253 252 252 252 252 251 251 250 250 249 248 247
288 288 288 288 287 287 287 287 287 287 286 286 286 285 285 284 283 282 281 280 278 277 276 275 273 272 269 267 265 264 263 260 257 253 252 252 252 253 253 252 252 252 251 251 251 251 250 250 249 249 249 247
287 288 288 287 287 287 287 287 287 287 287 286 286 285 284 284 283 282 280 279 278 277 276 275 273 271 269 266 264 263 261 258 253 250 249 251 251 251 252 252 251 251 250 250 250 250 250 249 249 248 248 247
287 287 287 287 287 287 287 287 287 287 286 286 285 284 283 283 282 281 280 279 278 277 276 275 273 271 269 266 263 262 259 255 251 248 248 249 250 250 250 250 250 250 249 249 249 249 249 249 248 248 247 247
287 287 287 287 287 287 287 287 286 286 285 285 284 283 283 282 282 281 280 279 278 277 276 275 273 271 268 265 263 260 257 253 249 247 247 249 250 250 249 249 249 249 248 248 248 248 248 248 247 247 247 246
286 286 287 287 287 287 287 286 285 285 284 284 283 283 282 282 281 281 280 278 278 277 276 275 273 271 268 265 262 260 256 252 249 248 248 249 249 250 249 249 249 248 248 247 247 247 247 247 247 246 246 246
286 286 287 287 287 286 285 285 284 284 283 283 283 282 282 281 280 279 278 278 277 277 276 275 273 271 269 265 262 259 255 252 250 249 250 250 250 250 250 249 248 248 248 247 247 247 247 247 247 246 246 245
286 287 286 286 285 285 284 284 283 282 282 283 283 282 281 280 278 277 276 276 276 276 276 274 273 271 269 265 262 259 255 252 251 251 251 251 250 250 250 250 249 249 248 247 247 247 247 247 247 247 246 245
286 286 285 284 284 283 282 281 281 281 281 282 282 282 281 279 278 276 275 274 274 274 274 274 273 271 269 265 263 259 255 252 251 251 252 252 251 251 250 250 249 249 248 248 247 247 247 248 248 248 247 246
285 285 284 283 282 281 280 280 280 280 280 281 281 281 280 279 278 276 275 274 273 272 272 271 271 270 269 266 263 259 256 253 252 252 252 252 252 251 251 250 250 250 249 248 248 247 247 247 248 248 249 248
284 283 283 282 281 280 280 279 279 279 280 280 280 279 279 279 278 277 276 274 273 272 271 270 269 268 267 266 264 260 257 254 253 253 253 253 253 252 251 251 250 250 250 249 249 248 247 247 247 248 249 250
283 282 281 281 281 280 280 280 280 279 279 279 279 279 278 278 277 277 276 275 274 272 271 270 268 267 266 265 264 261 259 256 254 254 254 254 253 253 252 252 251 251 251 251 250 249 248 247 247 247 248 249
282 282 281 281 281 280 280 280 280 280 280 279 279 278 278 278 277 277 276 275 274 273 271 270 268 267 265 264 263 261 260 257 256 255 255 255 255 254 254 253 253 252 252 252 252 251 250 248 248 247 247 248
Height
10690 10689 10687 10685 10682 10680 10677 10675 10673 10671 10670 10669 10667 10666 10663 10661 10659 10657 10656 10654 10652 10651 10650 10648 10647 10646 10645 10645 10645 10645 10645 10646 10647 10648 10649 10651 10651 10652 10653 10655 10657 10659 10660 10661 10663 10666 10668 10670 10673 10675 10679 10686
10681 10679 10677 10675 10672 10669 10666 10664 10662 10661 10660 10658 10656 10653 10651 10649 10647 10645 10643 10641 10640 10638 10637 10635 10634 10633 10632 10632 10632 10632 10632 10633 10633 10634 10636 10637 10639 10640 10641 10642 10643 10646 10647 10648 10650 10652 10655 10657 10660 10663 10665 10671
10671 10669 10667 10664 10661 10658 10655 10654 10652 10651 10649 10646 10643 10641 10638 10636 10634 10632 10630 10629 10627 10626 10624 10623 10622 10621 10620 10620 10619 10619 10620 10620 10620 10621 10622 10623 10625 10627 10628 10629 10631 10633 10634 10635 10636 10638 10641 10644 10646 10650 10653 10656
10661 10659 10657 10653 10650 10647 10645 10644 10642 10640 10637 10634 10631 10629 10626 10624 10622 10620 10617 10616 10614 10613 10612 10610 10610 10609 10608 10608 10608 10608 10608 10608 10608 10608 10609 10610 10611 10613 10615 10617 10619 10620 10621 10623 10624 10625 10627 10630 10633 10636 10640 10643
10651 10648 10645 10642 10639 10637 10635 10633 10631 10629 10625 10622 10619 10617 10614 10612 10609 10607 10605 10603 10601 10600 10599 10598 10597 10597 10597 10597 10596 10596 10596 10596 10596 10597 10597 10597 10598 10599 10601 10603 10606 10608 10610 10611 10612 10612 10614 10617 10620 10623 10627 10630
10640 10636 10633 10630 10628 10626 10624 10622 10620 10617 10614 10610 10608 10605 10603 10600 10598 10596 10593 10591 10590 10588 10587 10586 10586 10585 10585 10585 10585 10584 10584 10584 10584 10584 10585 10586 10586 10587 10588 10589 10592 10595 10597 10599 10600 10601 10602 10604 10607 10610 10613 10617
10628 10625 10622 10619 10617 10615 10613 10610 10608 10606 10602 10599 10597 10594 10592 10590 10587 10585 10582 10580 10579 10577 10575 10574 10574 10573 10573 10572 10573 10572 10571 10572 10572 10572 10573 10574 10575 10575 10576 10577 10578 10581 10584 10587 10589 10590 10590 10592 10593 10596 10600 10603
10617 10613 10610 10607 10605 10603 10600 10598 10595 10593 10590 10588 10586 10584 10582 10579 10577 10574 10572 10570 10567 10566 10564 10562 10562 10562 10561 10560 10560 10560 10559 10559 10560 10561 10561 10562 10563 10564 10564 10565 10566 10568 10571 10574 10577 10579 10580 10580 10581 10584 10587 10590
10605 10602 10599 10596 10593 10591 10588 10585 10583 10581 10579 10577 10575 10573 10571 10568 10565 10563 10560 10558 10556 10554 10553 10551 10551 10551 10550 10549 10548 10549 10548 10548 10549 10549 10549 10550 10551 10552 10553 10553 10554 10555 10558 10561 10565 10568 10569 10570 10570 10572 10574 10577
10593 10590 10587 10584 10581 10579 10576 10574 10571 10569 10567 10565 10564 10562 10559 10557 10554 10552 10549 10546 10544 10542 10542 10541 10540 10540 10539 10538 10537 10537 10536 10536 10537 10537 10537 10538 10539 10540 10541 10541 10543 10544 10545 10548 10552 10555 10558 10559 10560 10561 10562 10564
10582 10579 10576 10573 10570 10567 10565 10562 10560 10558 10556 10554 10552 10550 10548 10545 10542 10540 10537 10534 10532 10531 10530 10530 10530 10529 10528 10527 10526 10526 10525 10525 10525 10525 10526 10526 10527 10528 10529 10529 10531 10532 10533 10535 10539 10542 10545 10548 10549 10550 10551 10553
10570 10567 10564 10562 10559 10556 10554 10551 10549 10546 10544 10542 10539 10537 10536 10533 10531 10528 10525 10522 10521 10520 10519 10519 10519 10518 10517 10516 10515 10515 10514 10513 10513 10513 10514 10514 10515 10516 10517 10517 10519 10520 10522 10524 10526 10529 10532 10536 10538 10540 10541 10542
10559 10556 10554 10551 10548 10546 10543 10540 10537 10534 10532 10529 10527 10525 10523 10521 10519 10516 10514 10511 10510 10509 10508 10507 10508 10507 10506 10505 10505 10504 10503 10503 10502 10502 10503 10503 10504 10504 10505 10506 10507 10509 10510 10512 10515 10517 10520 10523 10526 10528 10530 10531
10548 10546 10543 10541 10538 10535 10532 10528 10525 10522 10519 10517 10514 10512 10511 10509 10507 10505 10503 10501 10499 10497 10496 10496 10496 10496 10496 10495 10495 10494 10492 10492 10492 10492 10492 10493 10493 10494 10494 10495 10497 10498 10499 10502 10504 10507 10509 10512 10515 10517 10518 10520
10538 10536 10533 10530 10527 10523 10520 10516 10513 10510 10507 10505 10502 10500 10499 10497 10496 10494 10492 10490 10488 10486 10485 10484 10485 10485 10485 10485 10485 10484 10482 10482 10483 10482 10482 10483 10484 10485 10485 10486 10487 10489 10490 10491 10494 10497 10499 10501 10504 10506 10508 10509
10528 10525 10522 10518 10515 10511 10508 10504 10501 10498 10496 10493 10491 10489 10487 10485 10484 10482 10480 10478 10476 10475 10474 10473 10473 10473 10474 10474 10474 10474 10473 10472 10473 10473 10473 10474 10476 10476 10476 10477 10478 10481 10482 10482 10486 10488 10489 10492 10494 10496 10497 10498
10517 10513 10510 10506 10502 10499 10496 10493 10490 10487 10484 10481 10479 10477 10475 10473 10472 10470 10468 10467 10465 10463 10462 10462 10462 10462 10462 10464 10464 10463 10463 10462 10462 10463 10464 10465 10467 10468 10468 10469 10470 10473 10474 10474 10477 10479 10481 10482 10483 10486 10488 10488
10505 10501 10498 10494 10491 10487 10484 10481 10478 10475 10472 10469 10467 10465 10463 10462 10459 10457 10456 10455 10453 10452 10451 10450 10450 10450 10451 10452 10453 10452 10452 10452 10452 10453 10455 10456 10458 10459 10460 10461 10461 10464 10465 10466 10468 10470 10473 10473 10474 10476 10478 10479
10493 10490 10486 10483 10479 10476 10472 10469 10465 10462 10459 10456 10454 10452 10451 10449 10447 10445 10444 10443 10441 10440 10439 10438 10438 10438 10438 10440 10441 10441 10441 10442 10442 10444 10446 10447 10449 10450 10451 10453 10453 10455 10457 10458 10460 10462 10464 10464 10465 10467 10468 10470
10481 10477 10474 10471 10467 10464 10461 10457 10453 10449 10446 10443 10441 10439 10438 10436 10435 10433 10431 10430 10429 10428 10427 10426 10426 10426 10426 10428 10429 10430 10430 10431 10432 10434 10436 10437 10440 10442 10442 10444 10445 10446 10448 10450 10451 10452 10454 10455 10457 10458 10459 10461
10468 10465 10462 10459 10455 10452 10448 10444 10440 10436 10433 10431 10428 10426 10425 10423 10422 10421 10419 10418 10417 10416 10415 10414 10414 10414 10415 10416 10418 10419 10419 10420 10421 10424 10427 10427 10429 10433 10433 10434 10435 10437 10439 10442 10443 10443 10444 10446 10449 10450 10449 10451
10456 10453 10450 10446 10443 10439 10435 10432 10428 10425 10422 10419 10416 10413 10412 10411 10410 10408 10407 10406 10405 10404 10403 10403 10403 10402 10403 10405 10406 10408 10408 10409 10411 10414 10416 10417 10419 10422 10424 10424 10425 10427 10430 10433 10434 10434 10434 10437 10440 10440 10440 10442
10444 10441 10437 10434 10431 10427 10423 10419 10416 10414 10411 10408 10405 10402 10400 10399 10398 10397 10396 10394 10394 10393 10393 10392 10392 10392 10392 10393 10395 10397 10397 10398 10400 10403 10406 10408 10408 10411 10414 10414 10415 10417 10420 10423 10424 10424 10425 10427 10429 10430 10431 10433
10432 10429 10425 10421 10418 10414 10410 10407 10404 10401 10399 10397 10395 10392 10391 10389 10388 10387 10385 10384 10383 10383 10383 10382 10381 10381 10381 10382 10384 10386 10387 10388 10390 10393 10395 10398 10399 10401 10403 10405 10405 10406 10409 10413 10414 10414 10415 10417 10418 10420 10421 10422
10420 10417 10413 10409 10405 10402 10398 10394 10392 10389 10388 10386 10385 10383 10382 10380 10379 10377 10375 10374 10373 10373 10372 10372 10371 10371 10371 10372 10374 10376 10377 10378 10380 10382 10384 10387 10389 10390 10392 10394 10394 10396 10399 10402 10403 10404 10406 10406 10407 10409 10411 10411
10407 10404 10401 10397 10393 10390 10386 10382 10381 10379 10377 10375 10374 10372 10371 10370 10369 10368 10366 10365 10364 10363 10362 10361 10361 10361 10361 10361 10363 10365 10366 10367 10369 10371 10373 10375 10378 10379 10381 10382 10382 10384 10388 10391 10391 10393 10395 10396 10395 10397 10398 10399
10394 10391 10388 10385 10382 10379 10376 10372 10370 10369 10367 10365 10363 10361 10359 10359 10358 10357 10356 10355 10354 10354 10352 10351 10351 10350 10351 10351 10352 10354 10355 10356 10357 10358 10360 10363 10365 10367 10369 10371 10370 10371 10374 10378 10379 10381 10384 10384 10383 10385 10385 10388
10381 10378 10375 10372 10370 10368 10366 10364 10360 10358 10356 10354 10353 10350 10347 10346 10345 10345 10345 10344 10343 10343 10343 10342 10341 10340 10340 10340 10340 10342 10344 10344 10345 10346 10347 10349 10351 10354 10356 10358 10358 10358 10360 10363 10366 10369 10372 10372 10372 10373 10371 10374
10368 10365 10362 10360 10358 10357 10356 10354 10351 10349 10346 10343 10342 10340 10337 10334 10332 10332 10332 10332 10331 10331 10332 10331 10331 10330 10330 10329 10328 10330 10332 10333 10332 10333 10333 10334 10337 10341 10342 10343 10345 10345 10345 10347 10351 10355 10358 10358 10360 10362 10358 10360
10355 10352 10350 10348 10347 10345 10344 10342 10339 10338 10336 10334 10330 10328 10326 10323 10321 10320 10320 10320 10319 10319 10319 10319 10319 10319 10319 10318 10317 10317 10319 10320 10319 10319 10320 10320 10323 10326 10327 10329 10332 10332 10330 10331 10336 10339 10341 10344 10347 10349 10347 10346
10342 10339 10338 10336 10335 10334 10332 10331 10328 10325 10323 10321 10319 10316 10313 10310 10308 10307 10307 10306 10306 10306 10306 10307 10307 10306 10307 10306 10305 10304 10305 10306 10305 10305 10305 10305 10308 10311 10312 10314 10317 10318 10315 10316 10320 10321 10322 10328 10331 10333 10334 10333